User: anonymous   Login
Location: York
(31.8935°S, 116.7682°E)
Time: 23:34:42
(UTC+08:00)
Language:

CUTE 1.7 + AOD 2 - Orbit

View from above orbital plane
View from above orbital plane
View from above satellite
View from above satellite

Ground track
Ground track

The orbit data is extracted from the following two-line orbital elements,

1 32785U 08021C   21214.70868071  .00000239  00000-0  31210-4 0  9998
2 32785  97.6139 191.7647 0012175 203.7074 156.3584 14.88762969719050
Epoch (UTC): 02 August 2021 17:00:30
Eccentricity: 0.0012175
inclination: 97.6139°
perigee height: 593 km
apogee height: 610 km
right ascension of ascending node: 191.7647°
argument of perigee: 203.7074°
revolutions per day: 14.88762969
mean anomaly at epoch: 156.3584°
orbit number at epoch: 71905

The dashed part of the orbit path shows where the satellite is in the earth's shadow,  

DLR